Regional Weather Roundup
Issued by NWS Goodland, KS

Home | Current Version | Previous Version | Text Only | Print | Product List | Glossary On
Versions: 1 2 3 4 5 6 7 8 9 10 11 12 13 14 15 16 17 18 19 20 21 22 23 24 25 26 27 28 29 30 31 32 33 34 35 36 37 38 39 40 41 42 43 44 45 46 47 48 49 50
000
ASUS43 KGLD 271408
RWRGLD

GOODLAND FORECAST AREA HOURLY WEATHER ROUNDUP
NATIONAL WEATHER SERVICE GOODLAND KS
800 AM MDT WED AUG 27 2014

...OFFICIAL OBSERVATIONS...

CITY           SKY/WX    TMP DP  RH WIND       PRES   REMARKS
GOODLAND KS    CLOUDY    65  64  97 S13       30.15S
HILL CITY KS   CLOUDY    71  67  87 CALM      30.13R
IMPERIAL NEB   MOSUNNY   67  63  87 S8        30.13R
MCCOOK NEB     CLOUDY    68  66  93 S8        30.13S
AKRON CO       MOSUNNY   63  60  90 S13G23    30.16R
BURLINGTON CO  CLOUDY    64  62  93 S15       30.16S
LIMON CO       CLOUDY    61  60  97 SE12      30.19R
$$

...UNOFFICIAL OBSERVATIONS...

CITY           SKY/WX    TMP DP  RH WIND       PRES   REMARKS
COLBY KS       PTSUNNY   66  66 100 SE10      30.15S
GOVE KS          N/A     70  32  24 CALM        N/A
NORTON KS      MOSUNNY   68  64  88 E3        30.12F
SHARON SPRINGS   N/A     65  64  96 S8          N/A
WAKEENEY KS      N/A     71  68  92 MISG        N/A
KIT CARSON CO    N/A     64  61  89 MISG        N/A
YUMA CO          N/A     63  62  97 SE8G15      N/A
$$


USA.gov is the U.S. government's official web portal to all federal, state and local government web resources and services.